STARLINK-30259, 57521

Orbit data source: Space-Track

STARLINK-30259, 57521 is a payload satellite owned by SpaceX/Seattle (US) in LEO that was launched on Tue, 08 Aug 2023 UTC via an FALCON 9 launch vehicle from the Air Force Western Test Range (AFWTR). Payload-class satellites include a variety of spacecraft equipped with specific instruments for various scientific and technological missions. These include communications satellites like Starlink; space stations such as the ISS; scientific satellites like the Hubble; Earth observation satellites from companies like Planet Labs, Umbra, and HawkEye 360; GPS; miniature CubeSats for education and research; and military/defense satellites.

Loading next visibility...
Identifier
57521, 2023-115A
Orbit
LEO
Country
Flag of USUS
Related business
Manufacturer
SpaceX/Seattle
Mission
Operational Commercial Communications
Bus & Motor
STARLINK V2M, Unknown motor
Mass
730 kg wet, ~700 kg dry
Launch date (UTC)
2023-08-08 (3 years ago)
Launch vehicle
FALCON 9
Launch site
Air Force Western Test Range (AFWTR)
Object type
Payload
Rocket body
Debris
Shape & HBR
Box + 2 Pan, 17.7 m
Radar Cross Section
33.884 m², Large (>1 m²)

Expand to show TLE details & history
Last TLE update: 2 days ago

TLE from 2 days ago
0 STARLINK-30259
1 57521U 23115A   26171.29943747 -.00000208  00000-0  19737-5 0  9997
2 57521  43.0050 142.1545 0001446 271.6236  88.4450 15.27575555159267
Epoch: 2026-06-20T07:11Z
TLE epoch observation values (Epoch: 2026-06-20T07:11:11.397Z)
Latitude
-0.00002°
Longitude
125.84094°
Altitude
482.812 km
Speed
7.626 km/s
True Right ascension
09h 28m 37s
True Declination
0° 00' 00"
Sunlit
Object was in daylight at epoch
Visualization orbit readout
Latitude
Unknown
Longitude
Unknown
Altitude
Unknown
Speed
Unknown
Apparent Right ascension
Unknown
Apparent Declination
Unknown
Sunlit
N/A
Visualization observer readout
Local Sidereal Time
21:32:41
Azimuth
Unknown
Elevation
Unknown
Doppler factor
Unknown
Orbital elements
Apogee altitude
485.999 km
Perigee altitude
484.014 km
Semi-major axis
6,863.144 km
Eccentricity
0.00014
Inclination
43.005°
RAAN
142.1545°
Arg. of periapsis
271.6236°
True anomaly
88.46156°
Mean anomaly
88.445°
Eccentric anomaly
88.45328°
Mean motion
3.81732 °/min
Orbital period
94.31 mins
BSTAR
0.0000019737
Loading maneuver chart data...
Computing Atmospheric mass density...
Loading historical data...
Loading historical data...
Loading historical data...
Loading historical data...
Loading historical data...
Loading historical data...
Loading historical data...

Documentation

Showing up to 5 results
|